Location: Saluda
(35.2377°N, 82.3468°W)
Time: 15:36:34
(UTC+00:00)

Transit 2A - Pass Details

Date: 09 October 2022
Orbit: 598 x 959 km, 66.7° (Epoch: 06 December)

Event Time Altitude Azimuth Distance (km) Brightness Sun altitude
Rises 02:06:23 0° 192° (SSW) 2,963 - -37.6°
Reaches altitude 10° 02:08:48 10° 186° (S) 2,014 - -38.0°
Maximum altitude 02:13:05 46° 113° (ESE) 821 - -38.8°
Drops below altitude 10° 02:17:14 10° 40° (NE) 1,941 - -39.6°
Sets 02:19:30 0° 34° (NE) 2,844 - -40.0°
